Location: Madrid
(40.4000°N, 3.6830°W)
Time: 19:10:02
(UTC+02:00)

ISS - Pass Details

Date: 25 September 2020
Orbit: 419 x 421 km, 51.6° (Epoch: 30 September)

Event Time Altitude Azimuth Distance (km) Brightness Sun altitude
Rises 22:32:13 0° 309° (NW) 2,368 1.2 -27.9°
Reaches altitude 10° 22:35:11 10° 337° (NNW) 1,503 -0.4 -28.4°
Enters shadow 22:35:31 11° 343° (NNW) 1,440 -0.6 -28.5°
